Location: Burla
(50.9568°N, 10.4983°E)
Time: 20:55:53
(UTC+00:00)

MOS 1 Rocket - Pass Details

Date: 18 January 2026
Orbit: 608 x 815 km, 97.4° (Epoch: 15 February)

Event Time Altitude Azimuth Distance (km) Brightness Sun altitude
Rises 05:27:16 0° 17° (NNE) 3,033 6.7 -16.0°
Reaches altitude 10° 05:29:38 10° 22° (NNE) 2,083 5.9 -15.6°
Maximum altitude 05:34:01 49° 98° (E) 823 4.1 -14.9°
Drops below altitude 10° 05:38:11 10° 174° (S) 1,982 5.9 -14.3°
Sets 05:40:23 0° 180° (S) 2,869 6.7 -14.0°
